Time,TemperatureF,DewpointF,PressureIn,WindDirection,WindDirectionDegrees,WindSpeedMPH,WindSpeedGustMPH,Humidity,HourlyPrecipIn,Conditions,Clouds,dailyrainin,SoftwareType,DateUTC
2013-04-08 00:02:00,39.2,30.9,29.80,SSE,158,0.0,2.4,72,0.00,CLR,,0.00,WeatherDisplay:10.37,2013-04-08 05:02:00,
2013-04-08 00:07:00,39.4,31.4,29.80,SE,135,0.0,2.0,73,0.00,CLR,,0.00,WeatherDisplay:10.37,2013-04-08 05:07:00,
2013-04-08 00:12:00,39.4,31.4,29.80,SE,135,1.6,2.4,73,0.00,CLR,,0.00,WeatherDisplay:10.37,2013-04-08 05:12:00,
2013-04-08 00:17:00,39.2,31.6,29.80,South,180,3.1,4.6,74,0.00,CLR,,0.00,WeatherDisplay:10.37,2013-04-08 05:17:00,
2013-04-08 00:22:00,39.6,32.3,29.80,SE,135,2.4,3.5,75,0.00,CLR,,0.00,WeatherDisplay:10.37,2013-04-08 05:22:00,
2013-04-08 00:27:00,39.7,32.5,29.80,South,180,2.9,3.5,75,0.00,CLR,,0.00,WeatherDisplay:10.37,2013-04-08 05:27:00,
2013-04-08 00:32:00,39.6,32.3,29.80,SE,135,2.9,4.6,75,0.00,CLR,,0.00,WeatherDisplay:10.37,2013-04-08 05:32:00,
2013-04-08 00:37:00,39.4,31.8,29.80,ESE,112,2.0,3.5,74,0.00,CLR,,0.00,WeatherDisplay:10.37,2013-04-08 05:37:00,
2013-04-08 00:42:00,39.6,32.3,29.77,SE,135,3.1,5.8,75,0.00,CLR,,0.00,WeatherDisplay:10.37,2013-04-08 05:42:00,
2013-04-08 00:47:00,39.6,32.6,29.77,SSE,158,4.0,4.6,76,0.00,CLR,,0.00,WeatherDisplay:10.37,2013-04-08 05:47:00,
2013-04-08 00:53:00,39.7,32.8,29.77,SE,135,3.3,3.5,76,0.00,CLR,,0.00,WeatherDisplay:10.37,2013-04-08 05:53:00,
2013-04-08 00:58:00,39.6,32.9,29.77,ESE,112,4.5,4.6,77,0.00,CLR,,0.00,WeatherDisplay:10.37,2013-04-08 05:58:00,
2013-04-08 01:03:00,39.6,32.9,29.77,SE,135,4.3,4.9,77,0.00,CLR,,0.00,WeatherDisplay:10.37,2013-04-08 06:03:00,
2013-04-08 01:08:00,39.7,33.1,29.77,East,90,3.3,4.6,77,0.00,CLR,,0.00,WeatherDisplay:10.37,2013-04-08 06:08:00,
2013-04-08 01:13:00,39.6,32.9,29.77,SSE,158,4.0,4.6,77,0.00,CLR,,0.00,WeatherDisplay:10.37,2013-04-08 06:13:00,
2013-04-08 01:18:00,39.4,33.1,29.77,SSE,158,6.2,6.9,78,0.00,CLR,,0.00,WeatherDisplay:10.37,2013-04-08 06:18:00,
2013-04-08 01:23:00,39.6,33.3,29.77,SE,135,3.6,3.6,78,0.00,CLR,,0.00,WeatherDisplay:10.37,2013-04-08 06:23:00,
2013-04-08 01:28:00,39.7,33.8,29.77,SSW,202,4.9,6.9,79,0.00,CLR,,0.00,WeatherDisplay:10.37,2013-04-08 06:28:00,
2013-04-08 01:33:00,40.1,33.8,29.77,ESE,112,5.9,6.9,78,0.00,CLR,,0.00,WeatherDisplay:10.37,2013-04-08 06:33:00,
2013-04-08 01:38:00,40.1,33.8,29.77,SE,135,5.4,8.1,78,0.00,CLR,,0.00,WeatherDisplay:10.37,2013-04-08 06:38:00,
2013-04-08 01:43:00,39.9,33.6,29.77,SSE,158,4.7,6.0,78,0.00,CLR,,0.00,WeatherDisplay:10.37,2013-04-08 06:43:00,
2013-04-08 01:48:00,39.9,33.6,29.77,ESE,112,5.9,8.1,78,0.00,CLR,,0.00,WeatherDisplay:10.37,2013-04-08 06:48:00,
2013-04-08 01:53:00,39.9,33.6,29.77,SE,135,4.3,5.8,78,0.00,CLR,,0.00,WeatherDisplay:10.37,2013-04-08 06:53:00,
2013-04-08 01:58:00,39.9,33.3,29.77,SE,135,4.3,4.6,77,0.00,CLR,,0.00,WeatherDisplay:10.37,2013-04-08 06:58:00,
2013-04-08 02:03:00,39.9,33.3,29.77,SSE,158,4.3,5.8,77,0.00,CLR,,0.00,WeatherDisplay:10.37,2013-04-08 07:03:00,
2013-04-08 02:08:00,39.9,33.3,29.77,SE,135,4.3,5.8,77,0.00,CLR,,0.00,WeatherDisplay:10.37,2013-04-08 07:08:00,
2013-04-08 02:13:00,39.9,33.3,29.77,SSE,158,4.3,4.6,77,0.00,CLR,,0.00,WeatherDisplay:10.37,2013-04-08 07:13:00,
2013-04-08 02:18:00,39.7,33.1,29.77,SSE,158,5.9,6.9,77,0.00,CLR,,0.00,WeatherDisplay:10.37,2013-04-08 07:18:00,
2013-04-08 02:23:00,39.6,32.9,29.77,SE,135,5.4,6.2,77,0.00,CLR,,0.00,WeatherDisplay:10.37,2013-04-08 07:23:00,
2013-04-08 02:28:00,39.6,32.9,29.77,ESE,112,4.7,5.8,77,0.00,CLR,,0.00,WeatherDisplay:10.37,2013-04-08 07:28:00,
2013-04-08 02:33:00,39.4,32.8,29.77,SE,135,3.8,5.8,77,0.00,CLR,,0.00,WeatherDisplay:10.37,2013-04-08 07:33:00,
2013-04-08 02:38:00,39.4,32.4,29.77,East,90,4.0,6.9,76,0.00,CLR,,0.00,WeatherDisplay:10.37,2013-04-08 07:38:00,
2013-04-08 02:43:00,39.2,32.3,29.77,SE,135,5.6,6.9,76,0.00,CLR,,0.00,WeatherDisplay:10.37,2013-04-08 07:43:00,
2013-04-08 02:48:00,39.2,32.3,29.77,East,90,3.8,5.8,76,0.00,CLR,,0.00,WeatherDisplay:10.37,2013-04-08 07:48:00,
2013-04-08 02:53:00,39.0,32.4,29.77,SSE,158,4.0,4.6,77,0.00,CLR,,0.00,WeatherDisplay:10.37,2013-04-08 07:53:00,
2013-04-08 02:58:00,39.0,32.4,29.74,ESE,112,4.5,6.9,77,0.00,CLR,,0.00,WeatherDisplay:10.37,2013-04-08 07:58:00,
2013-04-08 03:03:00,38.8,32.2,29.74,SE,135,4.5,5.8,77,0.00,CLR,,0.00,WeatherDisplay:10.37,2013-04-08 08:03:00,
2013-04-08 03:08:00,38.8,31.9,29.74,SE,135,4.0,4.6,76,0.00,CLR,,0.00,WeatherDisplay:10.37,2013-04-08 08:08:00,
2013-04-08 03:13:00,38.7,32.1,29.71,SSE,158,6.4,8.1,77,0.00,CLR,,0.00,WeatherDisplay:10.37,2013-04-08 08:13:00,
2013-04-08 03:18:00,38.7,31.7,29.71,SSE,158,4.3,8.1,76,0.00,CLR,,0.00,WeatherDisplay:10.37,2013-04-08 08:18:00,
2013-04-08 03:23:00,38.7,31.7,29.71,ESE,112,4.9,8.1,76,0.00,CLR,,0.00,WeatherDisplay:10.37,2013-04-08 08:23:00,
2013-04-08 03:28:00,38.5,31.9,29.71,SSE,158,4.7,5.8,77,0.00,CLR,,0.00,WeatherDisplay:10.37,2013-04-08 08:28:00,
2013-04-08 03:33:00,38.5,31.6,29.71,South,180,3.3,4.6,76,0.00,CLR,,0.00,WeatherDisplay:10.37,2013-04-08 08:33:00,
2013-04-08 03:38:00,38.5,31.6,29.71,SE,135,4.0,5.8,76,0.00,CLR,,0.00,WeatherDisplay:10.37,2013-04-08 08:38:00,
2013-04-08 03:44:00,38.3,31.4,29.71,SE,135,2.6,2.6,76,0.00,CLR,,0.00,WeatherDisplay:10.37,2013-04-08 08:44:00,
2013-04-08 03:49:00,38.1,31.2,29.71,ESE,112,3.3,4.6,76,0.00,CLR,,0.00,WeatherDisplay:10.37,2013-04-08 08:49:00,
2013-04-08 03:54:00,38.1,31.2,29.71,SSE,158,2.6,5.4,76,0.00,CLR,,0.00,WeatherDisplay:10.37,2013-04-08 08:54:00,
2013-04-08 04:00:00,37.9,31.4,29.71,SSE,158,2.9,3.1,77,0.00,CLR,,0.00,WeatherDisplay:10.37,2013-04-08 09:00:00,
2013-04-08 04:05:00,37.9,31.4,29.71,SE,145,2.0,5.0,77,0.00,CLR,,0.00,WeatherDisplay:10.37,2013-04-08 09:05:00,
2013-04-08 04:10:00,37.9,31.4,29.71,SE,140,2.0,5.0,77,0.00,CLR,,0.00,WeatherDisplay:10.37,2013-04-08 09:10:00,
2013-04-08 04:15:00,37.8,31.2,29.71,SE,129,1.0,4.0,77,0.00,CLR,,0.00,WeatherDisplay:10.37,2013-04-08 09:15:00,
2013-04-08 04:20:00,37.6,31.0,29.71,SE,127,0.0,3.0,77,0.00,CLR,,0.00,WeatherDisplay:10.37,2013-04-08 09:20:00,
2013-04-08 04:25:00,37.6,31.0,29.71,ESE,112,2.4,3.8,77,0.00,CLR,,0.00,WeatherDisplay:10.37,2013-04-08 09:25:00,
2013-04-08 04:30:00,37.6,31.0,29.71,ESE,112,2.2,3.5,77,0.00,CLR,,0.00,WeatherDisplay:10.37,2013-04-08 09:30:00,
2013-04-08 04:35:00,37.4,30.8,29.71,ESE,112,0.0,2.0,77,0.00,CLR,,0.00,WeatherDisplay:10.37,2013-04-08 09:35:00,
2013-04-08 04:40:00,37.4,30.8,29.71,SE,135,1.6,2.3,77,0.00,CLR,,0.00,WeatherDisplay:10.37,2013-04-08 09:40:00,
2013-04-08 04:45:00,37.2,30.7,29.71,East,90,1.6,2.3,77,0.00,CLR,,0.00,WeatherDisplay:10.37,2013-04-08 09:45:00,
2013-04-08 04:50:00,37.0,30.5,29.71,ESE,112,0.0,0.0,77,0.00,CLR,,0.00,WeatherDisplay:10.37,2013-04-08 09:50:00,
2013-04-08 04:55:00,37.0,30.5,29.71,ESE,112,0.0,0.0,77,0.00,CLR,,0.00,WeatherDisplay:10.37,2013-04-08 09:55:00,
2013-04-08 05:00:00,37.0,30.8,29.71,East,90,3.8,5.8,78,0.00,CLR,,0.00,WeatherDisplay:10.37,2013-04-08 10:00:00,
2013-04-08 05:05:00,37.0,30.8,29.71,East,90,3.1,3.5,78,0.00,CLR,,0.00,WeatherDisplay:10.37,2013-04-08 10:05:00,
2013-04-08 05:10:00,36.9,30.6,29.68,East,90,1.1,2.3,78,0.00,CLR,,0.00,WeatherDisplay:10.37,2013-04-08 10:10:00,
2013-04-08 05:16:00,36.9,30.6,29.68,ESE,112,2.4,3.5,78,0.00,CLR,,0.00,WeatherDisplay:10.37,2013-04-08 10:16:00,
2013-04-08 05:21:00,36.9,30.6,29.68,South,180,0.0,1.1,78,0.00,CLR,,0.00,WeatherDisplay:10.37,2013-04-08 10:21:00,
2013-04-08 05:26:00,36.9,30.6,29.71,South,180,2.6,3.1,78,0.00,CLR,,0.00,WeatherDisplay:10.37,2013-04-08 10:26:00,
2013-04-08 05:31:00,36.9,30.6,29.71,SSW,202,0.0,0.0,78,0.00,CLR,,0.00,WeatherDisplay:10.37,2013-04-08 10:31:00,
2013-04-08 05:37:00,37.0,30.8,29.71,SSW,202,0.0,0.0,78,0.00,CLR,,0.00,WeatherDisplay:10.37,2013-04-08 10:37:00,
2013-04-08 05:42:00,37.0,30.8,29.71,WNW,292,2.6,2.9,78,0.00,CLR,,0.00,WeatherDisplay:10.37,2013-04-08 10:42:00,
2013-04-08 05:47:00,37.0,31.1,29.71,NW,315,4.9,6.9,79,0.00,CLR,,0.00,WeatherDisplay:10.37,2013-04-08 10:47:00,
2013-04-08 05:52:00,37.4,31.5,29.71,North,0,4.3,5.8,79,0.00,CLR,,0.00,WeatherDisplay:10.37,2013-04-08 10:52:00,
2013-04-08 05:57:00,37.4,31.5,29.71,NNE,22,2.4,3.5,79,0.00,CLR,,0.00,WeatherDisplay:10.37,2013-04-08 10:57:00,
2013-04-08 06:02:00,37.4,31.2,29.71,North,0,1.4,2.3,78,0.00,CLR,,0.00,WeatherDisplay:10.37,2013-04-08 11:02:00,
2013-04-08 06:07:00,37.6,31.3,29.71,NNW,338,4.5,5.8,78,0.00,CLR,,0.00,WeatherDisplay:10.37,2013-04-08 11:07:00,
2013-04-08 06:12:00,37.8,31.5,29.71,NNE,22,3.1,4.6,78,0.00,CLR,,0.00,WeatherDisplay:10.37,2013-04-08 11:12:00,
2013-04-08 06:17:00,37.8,31.5,29.71,NNE,22,4.3,5.8,78,0.00,CLR,,0.00,WeatherDisplay:10.37,2013-04-08 11:17:00,
2013-04-08 06:23:00,37.8,31.5,29.71,NNW,338,2.9,3.5,78,0.00,CLR,,0.00,WeatherDisplay:10.37,2013-04-08 11:23:00,
2013-04-08 06:28:00,37.8,31.5,29.71,NNW,338,3.6,5.8,78,0.00,CLR,,0.00,WeatherDisplay:10.37,2013-04-08 11:28:00,
2013-04-08 06:33:00,37.6,31.3,29.71,North,0,2.6,3.5,78,0.00,CLR,,0.00,WeatherDisplay:10.37,2013-04-08 11:33:00,
2013-04-08 06:38:00,37.6,31.3,29.71,NNW,338,3.6,4.9,78,0.00,CLR,,0.00,WeatherDisplay:10.37,2013-04-08 11:38:00,
2013-04-08 06:43:00,37.6,31.3,29.68,North,0,3.1,5.8,78,0.00,CLR,,0.00,WeatherDisplay:10.37,2013-04-08 11:43:00,
2013-04-08 06:48:00,37.6,31.3,29.68,North,0,3.3,3.5,78,0.00,CLR,,0.00,WeatherDisplay:10.37,2013-04-08 11:48:00,
2013-04-08 06:53:00,37.6,31.0,29.68,NE,45,1.4,3.6,77,0.00,CLR,,0.00,WeatherDisplay:10.37,2013-04-08 11:53:00,
2013-04-08 06:58:00,37.8,31.2,29.71,ENE,68,2.4,3.5,77,0.00,CLR,,0.00,WeatherDisplay:10.37,2013-04-08 11:58:00,
2013-04-08 07:03:00,37.8,31.2,29.71,NNE,22,2.4,2.6,77,0.00,CLR,,0.00,WeatherDisplay:10.37,2013-04-08 12:03:00,
2013-04-08 07:08:00,37.8,31.2,29.71,NE,45,2.4,3.5,77,0.00,CLR,,0.00,WeatherDisplay:10.37,2013-04-08 12:08:00,
2013-04-08 07:13:00,37.6,31.0,29.71,ESE,112,2.6,3.5,77,0.00,CLR,,0.00,WeatherDisplay:10.37,2013-04-08 12:13:00,
2013-04-08 07:18:00,37.8,31.2,29.71,North,0,1.6,2.3,77,0.00,CLR,,0.00,WeatherDisplay:10.37,2013-04-08 12:18:00,
2013-04-08 07:23:00,37.8,31.2,29.71,NE,45,0.0,1.1,77,0.00,CLR,,0.00,WeatherDisplay:10.37,2013-04-08 12:23:00,
2013-04-08 07:28:00,37.9,31.4,29.71,NE,45,0.0,0.0,77,0.00,CLR,,0.00,WeatherDisplay:10.37,2013-04-08 12:28:00,
2013-04-08 07:33:00,37.9,31.4,29.71,NNE,22,0.0,0.0,77,0.00,CLR,,0.00,WeatherDisplay:10.37,2013-04-08 12:33:00,
2013-04-08 07:38:00,38.1,31.5,29.71,WNW,292,0.0,1.1,77,0.00,CLR,,0.00,WeatherDisplay:10.37,2013-04-08 12:38:00,
2013-04-08 07:43:00,38.3,31.4,29.71,ESE,112,0.0,0.0,76,0.00,CLR,,0.00,WeatherDisplay:10.37,2013-04-08 12:43:00,
2013-04-08 07:48:00,38.3,31.4,29.71,ENE,68,0.9,1.1,76,0.00,CLR,,0.00,WeatherDisplay:10.37,2013-04-08 12:48:00,
2013-04-08 07:53:00,38.5,31.6,29.71,East,90,2.9,4.6,76,0.00,CLR,,0.00,WeatherDisplay:10.37,2013-04-08 12:53:00,
2013-04-08 07:58:00,38.3,31.4,29.71,East,90,3.6,4.6,76,0.00,CLR,,0.00,WeatherDisplay:10.37,2013-04-08 12:58:00,
2013-04-08 08:03:00,38.3,31.4,29.71,ESE,112,1.6,2.3,76,0.00,CLR,,0.00,WeatherDisplay:10.37,2013-04-08 13:03:00,
2013-04-08 08:08:00,38.5,31.6,29.71,ENE,68,1.6,2.3,76,0.00,CLR,,0.00,WeatherDisplay:10.37,2013-04-08 13:08:00,
2013-04-08 08:13:00,38.7,31.7,29.71,ENE,68,0.0,2.2,76,0.00,CLR,,0.00,WeatherDisplay:10.37,2013-04-08 13:13:00,
2013-04-08 08:18:00,38.5,31.2,29.71,NE,45,1.1,1.1,75,0.00,CLR,,0.00,WeatherDisplay:10.37,2013-04-08 13:18:00,
2013-04-08 08:23:00,38.7,31.4,29.71,ENE,68,1.4,2.3,75,0.00,CLR,,0.00,WeatherDisplay:10.37,2013-04-08 13:23:00,
2013-04-08 08:28:00,38.7,31.4,29.71,ENE,68,2.2,2.3,75,0.00,CLR,,0.00,WeatherDisplay:10.37,2013-04-08 13:28:00,
2013-04-08 08:33:00,38.7,31.4,29.71,NE,45,2.4,3.5,75,0.00,CLR,,0.00,WeatherDisplay:10.37,2013-04-08 13:33:00,
2013-04-08 08:38:00,38.7,31.4,29.71,NE,45,4.0,5.8,75,0.00,CLR,,0.00,WeatherDisplay:10.37,2013-04-08 13:38:00,
2013-04-08 08:43:00,38.7,31.7,29.68,East,90,3.1,3.5,76,0.00,CLR,,0.00,WeatherDisplay:10.37,2013-04-08 13:43:00,
2013-04-08 08:48:00,38.7,31.7,29.68,East,90,4.3,5.8,76,0.00,CLR,,0.00,WeatherDisplay:10.37,2013-04-08 13:48:00,
2013-04-08 08:53:00,38.8,31.9,29.68,ENE,68,3.6,4.6,76,0.00,CLR,,0.00,WeatherDisplay:10.37,2013-04-08 13:53:00,
2013-04-08 08:58:00,39.0,32.1,29.71,ESE,112,2.6,2.6,76,0.00,CLR,,0.00,WeatherDisplay:10.37,2013-04-08 13:58:00,
2013-04-08 09:03:00,39.0,31.8,29.71,ESE,112,3.3,5.8,75,0.00,CLR,,0.00,WeatherDisplay:10.37,2013-04-08 14:03:00,
2013-04-08 09:08:00,39.2,31.6,29.71,ENE,68,3.1,4.6,74,0.00,CLR,,0.00,WeatherDisplay:10.37,2013-04-08 14:08:00,
2013-04-08 09:13:00,39.4,31.8,29.68,ENE,68,3.8,4.6,74,0.00,CLR,,0.00,WeatherDisplay:10.37,2013-04-08 14:13:00,
2013-04-08 09:18:00,39.4,31.4,29.68,NNE,22,2.6,4.3,73,0.00,CLR,,0.00,WeatherDisplay:10.37,2013-04-08 14:18:00,
2013-04-08 09:23:00,39.6,31.6,29.68,East,90,3.1,3.5,73,0.00,CLR,,0.00,WeatherDisplay:10.37,2013-04-08 14:23:00,
2013-04-08 09:28:00,39.9,32.0,29.68,NNE,22,2.9,3.5,73,0.00,CLR,,0.00,WeatherDisplay:10.37,2013-04-08 14:28:00,
2013-04-08 09:33:00,40.1,32.1,29.68,NE,45,2.2,3.1,73,0.00,CLR,,0.00,WeatherDisplay:10.37,2013-04-08 14:33:00,
2013-04-08 09:38:00,39.9,31.3,29.68,ENE,68,2.4,3.5,71,0.00,CLR,,0.00,WeatherDisplay:10.37,2013-04-08 14:38:00,
2013-04-08 09:43:00,39.7,31.1,29.68,East,90,4.7,5.8,71,0.00,CLR,,0.00,WeatherDisplay:10.37,2013-04-08 14:43:00,
2013-04-08 09:48:00,39.7,31.1,29.68,NE,45,3.1,4.3,71,0.00,CLR,,0.00,WeatherDisplay:10.37,2013-04-08 14:48:00,
2013-04-08 09:53:00,39.7,31.1,29.68,ENE,68,3.8,3.8,71,0.00,CLR,,0.00,WeatherDisplay:10.37,2013-04-08 14:53:00,
2013-04-08 09:58:00,39.7,31.1,29.68,ENE,68,4.0,5.4,71,0.00,CLR,,0.00,WeatherDisplay:10.37,2013-04-08 14:58:00,
2013-04-08 10:03:00,39.6,30.9,29.68,ENE,68,4.0,5.8,71,0.00,CLR,,0.00,WeatherDisplay:10.37,2013-04-08 15:03:00,
2013-04-08 10:08:00,39.7,31.1,29.68,NE,45,2.4,3.5,71,0.00,CLR,,0.00,WeatherDisplay:10.37,2013-04-08 15:08:00,
2013-04-08 10:13:00,39.9,30.9,29.68,NNE,22,3.3,4.0,70,0.00,CLR,,0.00,WeatherDisplay:10.37,2013-04-08 15:13:00,
2013-04-08 10:19:00,39.9,31.3,29.68,NE,45,3.8,4.6,71,0.00,CLR,,0.00,WeatherDisplay:10.37,2013-04-08 15:19:00,
2013-04-08 10:24:00,39.9,31.3,29.68,NE,45,4.0,5.8,71,0.00,CLR,,0.00,WeatherDisplay:10.37,2013-04-08 15:24:00,
2013-04-08 10:29:00,39.9,31.6,29.68,ENE,68,4.5,5.8,72,0.00,CLR,,0.00,WeatherDisplay:10.37,2013-04-08 15:29:00,
2013-04-08 10:35:00,39.9,31.6,29.68,ENE,68,3.3,4.6,72,0.00,CLR,,0.00,WeatherDisplay:10.37,2013-04-08 15:35:00,
2013-04-08 10:40:00,40.1,31.8,29.71,NE,45,2.9,3.5,72,0.00,CLR,,0.00,WeatherDisplay:10.37,2013-04-08 15:40:00,
2013-04-08 10:45:00,40.2,31.9,29.71,NNE,25,3.0,6.0,72,0.00,CLR,,0.00,WeatherDisplay:10.37,2013-04-08 15:45:00,
2013-04-08 10:50:00,40.1,31.8,29.71,North,10,3.0,6.0,72,0.00,CLR,,0.00,WeatherDisplay:10.37,2013-04-08 15:50:00,
2013-04-08 10:55:00,40.1,32.1,29.71,NNE,22,2.9,3.5,73,0.00,CLR,,0.00,WeatherDisplay:10.37,2013-04-08 15:55:00,
2013-04-08 11:00:00,40.1,32.1,29.71,NE,45,4.9,5.9,73,0.00,CLR,,0.00,WeatherDisplay:10.37,2013-04-08 16:00:00,
2013-04-08 11:05:00,40.3,32.3,29.71,NE,45,2.9,3.5,73,0.00,CLR,,0.00,WeatherDisplay:10.37,2013-04-08 16:05:00,
2013-04-08 11:10:00,40.8,33.2,29.71,NNE,22,4.3,5.8,74,0.00,CLR,,0.00,WeatherDisplay:10.37,2013-04-08 16:10:00,
2013-04-08 11:15:00,41.2,32.8,29.71,ENE,68,3.8,4.6,72,0.00,CLR,,0.00,WeatherDisplay:10.37,2013-04-08 16:15:00,
2013-04-08 11:20:00,42.1,33.7,29.71,NE,45,3.6,4.6,72,0.00,CLR,,0.00,WeatherDisplay:10.37,2013-04-08 16:20:00,
2013-04-08 11:25:00,43.5,34.4,29.71,North,0,2.2,3.5,70,0.00,CLR,,0.00,WeatherDisplay:10.37,2013-04-08 16:25:00,
2013-04-08 11:30:00,43.7,33.5,29.71,North,0,3.6,4.6,67,0.00,CLR,,0.00,WeatherDisplay:10.37,2013-04-08 16:30:00,
2013-04-08 11:35:00,44.8,34.1,29.71,NE,45,2.0,4.6,66,0.00,CLR,,0.00,WeatherDisplay:10.37,2013-04-08 16:35:00,
2013-04-08 11:40:00,45.0,33.5,29.71,NNE,22,3.1,5.8,64,0.00,CLR,,0.00,WeatherDisplay:10.37,2013-04-08 16:40:00,
2013-04-08 11:45:00,45.1,33.7,29.71,NW,315,2.9,4.6,64,0.00,CLR,,0.00,WeatherDisplay:10.37,2013-04-08 16:45:00,
2013-04-08 11:50:00,45.3,33.5,29.71,North,0,3.1,4.6,63,0.00,CLR,,0.00,WeatherDisplay:10.37,2013-04-08 16:50:00,
2013-04-08 11:55:00,46.2,33.5,29.74,North,0,2.6,4.3,61,0.00,CLR,,0.00,WeatherDisplay:10.37,2013-04-08 16:55:00,
2013-04-08 12:00:00,46.0,33.3,29.74,NNE,22,4.0,4.6,61,0.00,CLR,,0.00,WeatherDisplay:10.37,2013-04-08 17:00:00,
2013-04-08 12:05:00,47.1,34.4,29.74,SW,225,1.4,2.3,61,0.00,CLR,,0.00,WeatherDisplay:10.37,2013-04-08 17:05:00,
2013-04-08 12:10:00,47.8,34.6,29.71,NNE,22,0.9,2.9,60,0.00,CLR,,0.00,WeatherDisplay:10.37,2013-04-08 17:10:00,
2013-04-08 12:16:00,49.1,34.9,29.71,North,0,2.0,4.6,58,0.00,CLR,,0.00,WeatherDisplay:10.37,2013-04-08 17:16:00,
2013-04-08 12:21:00,50.0,34.5,29.71,WNW,292,2.4,4.6,55,0.00,CLR,,0.00,WeatherDisplay:10.37,2013-04-08 17:21:00,
2013-04-08 12:26:00,50.4,34.3,29.74,NNW,338,2.9,4.6,54,0.00,CLR,,0.00,WeatherDisplay:10.37,2013-04-08 17:26:00,
2013-04-08 12:31:00,51.3,34.7,29.74,NNE,22,1.4,3.5,53,0.00,CLR,,0.00,WeatherDisplay:10.37,2013-04-08 17:31:00,
2013-04-08 12:36:00,51.6,35.0,29.74,ENE,68,1.6,3.5,53,0.00,CLR,,0.00,WeatherDisplay:10.37,2013-04-08 17:36:00,
2013-04-08 12:41:00,50.7,33.2,29.74,NW,315,4.5,4.6,51,0.00,CLR,,0.00,WeatherDisplay:10.37,2013-04-08 17:41:00,
2013-04-08 12:46:00,50.7,33.2,29.74,NNE,22,0.9,3.5,51,0.00,CLR,,0.00,WeatherDisplay:10.37,2013-04-08 17:46:00,
2013-04-08 12:51:00,50.4,32.9,29.74,North,0,3.1,3.5,51,0.00,CLR,,0.00,WeatherDisplay:10.37,2013-04-08 17:51:00,
2013-04-08 12:56:00,50.4,33.4,29.74,North,0,3.3,5.8,52,0.00,CLR,,0.00,WeatherDisplay:10.37,2013-04-08 17:56:00,
2013-04-08 13:01:00,49.8,33.4,29.74,NNW,338,3.8,4.7,53,0.00,CLR,,0.00,WeatherDisplay:10.37,2013-04-08 18:01:00,
2013-04-08 13:06:00,49.8,33.8,29.74,West,270,4.5,4.6,54,0.00,CLR,,0.00,WeatherDisplay:10.37,2013-04-08 18:06:00,
2013-04-08 13:11:00,50.0,33.5,29.74,NNW,338,2.9,3.5,53,0.00,CLR,,0.00,WeatherDisplay:10.37,2013-04-08 18:11:00,
2013-04-08 13:16:00,50.4,33.9,29.74,NW,315,1.6,3.5,53,0.00,CLR,,0.00,WeatherDisplay:10.37,2013-04-08 18:16:00,
2013-04-08 13:21:00,50.0,33.5,29.74,NE,45,3.1,4.6,53,0.00,CLR,,0.00,WeatherDisplay:10.37,2013-04-08 18:21:00,
2013-04-08 13:27:00,50.2,33.7,29.74,NNE,22,2.2,3.5,53,0.00,CLR,,0.00,WeatherDisplay:10.37,2013-04-08 18:27:00,
2013-04-08 13:32:00,50.0,33.5,29.74,North,0,3.6,4.6,53,0.00,CLR,,0.00,WeatherDisplay:10.37,2013-04-08 18:32:00,
2013-04-08 13:37:00,50.9,34.4,29.74,ENE,68,3.1,4.6,53,0.00,CLR,,0.00,WeatherDisplay:10.37,2013-04-08 18:37:00,
2013-04-08 13:42:00,51.1,33.6,29.74,NNE,22,3.6,4.6,51,0.00,CLR,,0.00,WeatherDisplay:10.37,2013-04-08 18:42:00,
2013-04-08 13:47:00,51.4,33.9,29.74,North,0,4.5,6.0,51,0.00,CLR,,0.00,WeatherDisplay:10.37,2013-04-08 18:47:00,
2013-04-08 13:52:00,51.6,34.1,29.74,NE,45,3.8,4.9,51,0.00,CLR,,0.00,WeatherDisplay:10.37,2013-04-08 18:52:00,
2013-04-08 13:57:00,52.2,34.6,29.74,NNE,22,3.1,4.6,51,0.00,CLR,,0.00,WeatherDisplay:10.37,2013-04-08 18:57:00,
2013-04-08 14:02:00,52.0,33.9,29.74,North,0,3.6,4.6,50,0.00,CLR,,0.00,WeatherDisplay:10.37,2013-04-08 19:02:00,
2013-04-08 14:07:00,52.3,34.7,29.74,NNE,22,3.1,4.6,51,0.00,CLR,,0.00,WeatherDisplay:10.37,2013-04-08 19:07:00,
2013-04-08 14:12:00,51.8,33.7,29.77,NNE,22,3.8,5.8,50,0.00,CLR,,0.00,WeatherDisplay:10.37,2013-04-08 19:12:00,
2013-04-08 14:17:00,51.3,33.2,29.77,NNE,22,3.6,5.8,50,0.00,CLR,,0.00,WeatherDisplay:10.37,2013-04-08 19:17:00,
2013-04-08 14:22:00,52.0,33.9,29.77,NE,45,3.8,4.6,50,0.00,CLR,,0.00,WeatherDisplay:10.37,2013-04-08 19:22:00,
2013-04-08 14:27:00,52.3,34.2,29.74,NNE,22,3.6,4.6,50,0.00,CLR,,0.00,WeatherDisplay:10.37,2013-04-08 19:27:00,
2013-04-08 14:32:00,52.9,34.7,29.74,NE,45,2.9,4.6,50,0.00,CLR,,0.00,WeatherDisplay:10.37,2013-04-08 19:32:00,
2013-04-08 14:37:00,53.1,34.9,29.74,North,0,2.9,3.5,50,0.00,CLR,,0.00,WeatherDisplay:10.37,2013-04-08 19:37:00,
2013-04-08 14:42:00,54.0,35.2,29.77,North,0,2.9,4.6,49,0.00,CLR,,0.00,WeatherDisplay:10.37,2013-04-08 19:42:00,
2013-04-08 14:47:00,54.9,36.0,29.77,NNE,22,1.6,3.5,49,0.00,CLR,,0.00,WeatherDisplay:10.37,2013-04-08 19:47:00,
2013-04-08 14:52:00,55.9,36.5,29.77,NNE,22,3.3,3.8,48,0.00,CLR,,0.00,WeatherDisplay:10.37,2013-04-08 19:52:00,
2013-04-08 14:57:00,55.6,35.7,29.74,NNE,22,4.3,4.6,47,0.00,CLR,,0.00,WeatherDisplay:10.37,2013-04-08 19:57:00,
2013-04-08 15:03:00,55.6,35.7,29.74,NE,45,3.6,4.6,47,0.00,CLR,,0.00,WeatherDisplay:10.37,2013-04-08 20:03:00,
2013-04-08 15:08:00,55.0,35.7,29.74,NNW,338,4.3,5.8,48,0.00,CLR,,0.00,WeatherDisplay:10.37,2013-04-08 20:08:00,
2013-04-08 15:13:00,54.5,35.2,29.77,North,0,2.9,5.8,48,0.00,CLR,,0.00,WeatherDisplay:10.37,2013-04-08 20:13:00,
2013-04-08 15:18:00,54.5,35.2,29.77,NNE,22,2.0,2.4,48,0.00,CLR,,0.00,WeatherDisplay:10.37,2013-04-08 20:18:00,
2013-04-08 15:23:00,54.5,35.7,29.77,NNE,22,2.9,3.5,49,0.00,CLR,,0.00,WeatherDisplay:10.37,2013-04-08 20:23:00,
2013-04-08 15:28:00,54.7,35.9,29.77,NNE,22,3.3,4.6,49,0.00,CLR,,0.00,WeatherDisplay:10.37,2013-04-08 20:28:00,
2013-04-08 15:33:00,54.7,36.4,29.77,North,0,3.1,5.8,50,0.00,CLR,,0.00,WeatherDisplay:10.37,2013-04-08 20:33:00,
2013-04-08 15:38:00,54.5,36.7,29.77,WNW,292,4.0,4.9,51,0.00,CLR,,0.00,WeatherDisplay:10.37,2013-04-08 20:38:00,
2013-04-08 15:43:00,54.7,37.4,29.77,North,0,4.5,5.6,52,0.00,CLR,,0.00,WeatherDisplay:10.37,2013-04-08 20:43:00,
2013-04-08 15:48:00,54.9,37.6,29.77,NNW,338,3.3,4.6,52,0.00,CLR,,0.00,WeatherDisplay:10.37,2013-04-08 20:48:00,
2013-04-08 15:53:00,55.4,37.6,29.77,NNW,338,2.0,2.3,51,0.00,CLR,,0.00,WeatherDisplay:10.37,2013-04-08 20:53:00,
2013-04-08 15:58:00,55.6,37.2,29.77,North,0,4.3,5.8,50,0.00,CLR,,0.00,WeatherDisplay:10.37,2013-04-08 20:58:00,
2013-04-08 16:03:00,54.7,36.9,29.77,NNW,338,4.9,5.8,51,0.00,CLR,,0.00,WeatherDisplay:10.37,2013-04-08 21:03:00,
2013-04-08 16:08:00,54.5,37.7,29.77,NW,315,5.4,5.8,53,0.00,CLR,,0.00,WeatherDisplay:10.37,2013-04-08 21:08:00,
2013-04-08 16:13:00,54.5,37.2,29.74,North,0,4.0,4.6,52,0.00,CLR,,0.00,WeatherDisplay:10.37,2013-04-08 21:13:00,
2013-04-08 16:18:00,54.5,37.2,29.74,North,0,3.1,5.8,52,0.00,CLR,,0.00,WeatherDisplay:10.37,2013-04-08 21:18:00,
2013-04-08 16:23:00,54.0,36.7,29.74,North,0,4.9,6.9,52,0.00,CLR,,0.00,WeatherDisplay:10.37,2013-04-08 21:23:00,
2013-04-08 16:28:00,54.1,37.8,29.77,North,0,4.5,6.9,54,0.00,CLR,,0.00,WeatherDisplay:10.37,2013-04-08 21:28:00,
2013-04-08 16:33:00,55.6,38.2,29.77,NNW,338,3.6,4.6,52,0.00,CLR,,0.00,WeatherDisplay:10.37,2013-04-08 21:33:00,
2013-04-08 16:38:00,55.2,37.9,29.77,North,0,4.9,6.9,52,0.00,CLR,,0.00,WeatherDisplay:10.37,2013-04-08 21:38:00,
2013-04-08 16:43:00,55.4,37.6,29.77,NNE,22,3.6,4.6,51,0.00,CLR,,0.00,WeatherDisplay:10.37,2013-04-08 21:43:00,
2013-04-08 16:48:00,55.2,37.4,29.77,North,0,3.6,5.8,51,0.00,CLR,,0.00,WeatherDisplay:10.37,2013-04-08 21:48:00,
2013-04-08 16:53:00,54.5,36.7,29.77,North,0,4.7,6.9,51,0.00,CLR,,0.00,WeatherDisplay:10.37,2013-04-08 21:53:00,
2013-04-08 16:58:00,54.1,36.4,29.77,North,0,4.7,6.9,51,0.00,CLR,,0.00,WeatherDisplay:10.37,2013-04-08 21:58:00,
2013-04-08 17:03:00,54.0,36.7,29.77,NNW,338,5.6,7.1,52,0.00,CLR,,0.00,WeatherDisplay:10.37,2013-04-08 22:03:00,
2013-04-08 17:08:00,53.6,36.9,29.77,NW,315,4.9,6.9,53,0.00,CLR,,0.00,WeatherDisplay:10.37,2013-04-08 22:08:00,
2013-04-08 17:13:00,53.4,37.2,29.80,NW,315,5.4,8.1,54,0.00,CLR,,0.00,WeatherDisplay:10.37,2013-04-08 22:13:00,
2013-04-08 17:19:00,53.4,37.2,29.80,North,0,5.4,8.1,54,0.00,CLR,,0.00,WeatherDisplay:10.37,2013-04-08 22:19:00,
2013-04-08 17:24:00,53.1,36.8,29.80,NNW,338,5.4,8.1,54,0.00,CLR,,0.00,WeatherDisplay:10.37,2013-04-08 22:24:00,
2013-04-08 17:29:00,52.7,36.5,29.80,NNE,22,7.4,8.1,54,0.00,CLR,,0.00,WeatherDisplay:10.37,2013-04-08 22:29:00,
2013-04-08 17:34:00,52.5,36.3,29.80,North,0,5.6,6.9,54,0.00,CLR,,0.00,WeatherDisplay:10.37,2013-04-08 22:34:00,
2013-04-08 17:39:00,52.7,37.0,29.80,NNE,22,3.3,4.6,55,0.00,CLR,,0.00,WeatherDisplay:10.37,2013-04-08 22:39:00,
2013-04-08 17:44:00,52.3,36.6,29.80,NNE,22,5.6,6.9,55,0.00,CLR,,0.00,WeatherDisplay:10.37,2013-04-08 22:44:00,
2013-04-08 17:50:00,52.6,36.8,29.80,NNE,13,3.0,6.0,55,0.00,CLR,,0.00,WeatherDisplay:10.37,2013-04-08 22:50:00,
2013-04-08 17:55:00,52.7,36.5,29.80,ENE,68,4.3,5.8,54,0.00,CLR,,0.00,WeatherDisplay:10.37,2013-04-08 22:55:00,
2013-04-08 18:00:00,52.3,36.1,29.80,NNE,21,3.0,6.0,54,0.00,CLR,,0.00,WeatherDisplay:10.37,2013-04-08 23:00:00,
2013-04-08 18:05:00,51.3,34.7,29.80,NNE,22,5.9,6.9,53,0.00,CLR,,0.00,WeatherDisplay:10.37,2013-04-08 23:05:00,
2013-04-08 18:10:00,51.1,34.5,29.83,NNW,338,4.7,6.9,53,0.00,CLR,,0.00,WeatherDisplay:10.37,2013-04-08 23:10:00,
2013-04-08 18:15:00,50.9,34.8,29.83,NNW,338,4.7,5.8,54,0.00,CLR,,0.00,WeatherDisplay:10.37,2013-04-08 23:15:00,
2013-04-08 18:20:00,50.5,34.5,29.83,NNE,22,4.3,5.8,54,0.00,CLR,,0.00,WeatherDisplay:10.37,2013-04-08 23:20:00,
2013-04-08 18:25:00,50.4,34.8,29.83,NE,45,2.0,2.3,55,0.00,CLR,,0.00,WeatherDisplay:10.37,2013-04-08 23:25:00,
2013-04-08 18:30:00,50.0,35.4,29.83,NE,45,2.2,2.3,57,0.00,CLR,,0.00,WeatherDisplay:10.37,2013-04-08 23:30:00,
2013-04-08 18:35:00,49.8,35.6,29.83,NE,45,2.9,4.6,58,0.00,CLR,,0.00,WeatherDisplay:10.37,2013-04-08 23:35:00,
2013-04-08 18:40:00,49.6,35.9,29.80,NE,45,3.6,4.6,59,0.00,CLR,,0.00,WeatherDisplay:10.37,2013-04-08 23:40:00,
2013-04-08 18:45:00,49.1,35.4,29.80,NE,45,4.0,5.8,59,0.00,CLR,,0.00,WeatherDisplay:10.37,2013-04-08 23:45:00,
2013-04-08 18:50:00,48.7,35.0,29.80,NNE,22,3.1,3.5,59,0.00,CLR,,0.00,WeatherDisplay:10.37,2013-04-08 23:50:00,
2013-04-08 18:55:00,48.6,35.3,29.83,NE,45,2.2,2.4,60,0.00,CLR,,0.00,WeatherDisplay:10.37,2013-04-08 23:55:00,
2013-04-08 19:00:00,48.4,35.5,29.83,NE,45,3.1,4.6,61,0.00,CLR,,0.00,WeatherDisplay:10.37,2013-04-09 00:00:00,
2013-04-08 19:05:00,48.0,36.0,29.83,NNE,22,2.2,3.3,63,0.00,CLR,,0.00,WeatherDisplay:10.37,2013-04-09 00:05:00,
2013-04-08 19:10:00,47.7,36.1,29.83,NNE,22,3.3,4.6,64,0.00,CLR,,0.00,WeatherDisplay:10.37,2013-04-09 00:10:00,
2013-04-08 19:15:00,47.3,35.7,29.83,NE,45,2.4,3.5,64,0.00,CLR,,0.00,WeatherDisplay:10.37,2013-04-09 00:15:00,
2013-04-08 19:20:00,46.9,35.4,29.83,NNE,22,2.2,3.5,64,0.00,CLR,,0.00,WeatherDisplay:10.37,2013-04-09 00:20:00,
2013-04-08 19:25:00,46.6,35.4,29.86,NE,45,2.4,3.5,65,0.00,CLR,,0.00,WeatherDisplay:10.37,2013-04-09 00:25:00,
2013-04-08 19:30:00,46.2,35.9,29.86,NNE,22,2.2,2.4,67,0.00,CLR,,0.00,WeatherDisplay:10.37,2013-04-09 00:30:00,
2013-04-08 19:35:00,45.9,36.3,29.86,ENE,68,3.3,4.6,69,0.00,CLR,,0.00,WeatherDisplay:10.37,2013-04-09 00:35:00,
2013-04-08 19:40:00,45.5,36.3,29.86,NE,45,3.1,3.8,70,0.00,CLR,,0.00,WeatherDisplay:10.37,2013-04-09 00:40:00,
2013-04-08 19:45:00,45.3,36.1,29.86,NE,45,3.6,4.6,70,0.00,CLR,,0.00,WeatherDisplay:10.37,2013-04-09 00:45:00,
2013-04-08 19:50:00,45.0,36.1,29.86,NNE,22,3.8,4.6,71,0.00,CLR,,0.00,WeatherDisplay:10.37,2013-04-09 00:50:00,
2013-04-08 19:55:00,44.8,35.9,29.89,NE,45,4.3,4.7,71,0.00,CLR,,0.00,WeatherDisplay:10.37,2013-04-09 00:55:00,
2013-04-08 20:00:00,44.4,36.0,29.89,ENE,68,5.4,5.9,72,0.00,CLR,,0.00,WeatherDisplay:10.37,2013-04-09 01:00:00,
2013-04-08 20:05:00,44.1,35.6,29.89,NE,45,4.3,6.7,72,0.00,CLR,,0.00,WeatherDisplay:10.37,2013-04-09 01:05:00,
2013-04-08 20:11:00,43.7,35.6,29.89,ENE,68,4.0,6.9,73,0.00,CLR,,0.00,WeatherDisplay:10.37,2013-04-09 01:11:00,
2013-04-08 20:16:00,43.3,35.3,29.89,ENE,68,3.3,4.6,73,0.00,CLR,,0.00,WeatherDisplay:10.37,2013-04-09 01:16:00,
2013-04-08 20:21:00,43.0,34.9,29.89,ENE,68,3.6,4.6,73,0.00,CLR,,0.00,WeatherDisplay:10.37,2013-04-09 01:21:00,
2013-04-08 20:26:00,42.8,35.1,29.89,NE,45,4.9,6.9,74,0.00,CLR,,0.00,WeatherDisplay:10.37,2013-04-09 01:26:00,
2013-04-08 20:31:00,42.4,35.1,29.89,NE,45,4.9,5.8,75,0.00,CLR,,0.00,WeatherDisplay:10.37,2013-04-09 01:31:00,
2013-04-08 20:36:00,42.3,34.9,29.89,NE,45,4.0,5.8,75,0.00,CLR,,0.00,WeatherDisplay:10.37,2013-04-09 01:36:00,
2013-04-08 20:41:00,42.1,35.1,29.89,NE,45,4.7,5.8,76,0.00,CLR,,0.00,WeatherDisplay:10.37,2013-04-09 01:41:00,
2013-04-08 20:46:00,41.7,34.7,29.89,ENE,68,5.9,6.9,76,0.00,CLR,,0.00,WeatherDisplay:10.37,2013-04-09 01:46:00,
2013-04-08 20:51:00,41.5,34.9,29.89,NE,45,5.4,6.9,77,0.00,CLR,,0.00,WeatherDisplay:10.37,2013-04-09 01:51:00,
2013-04-08 20:56:00,41.2,34.5,29.92,NE,45,4.5,6.2,77,0.00,CLR,,0.00,WeatherDisplay:10.37,2013-04-09 01:56:00,
2013-04-08 21:01:00,40.8,34.2,29.92,NE,45,2.4,4.6,77,0.00,CLR,,0.00,WeatherDisplay:10.37,2013-04-09 02:01:00,
2013-04-08 21:06:00,40.6,34.3,29.92,ESE,112,4.7,5.8,78,0.00,CLR,,0.00,WeatherDisplay:10.37,2013-04-09 02:06:00,
2013-04-08 21:11:00,40.5,34.1,29.95,NE,45,1.6,3.5,78,0.00,CLR,,0.00,WeatherDisplay:10.37,2013-04-09 02:11:00,
2013-04-08 21:16:00,40.3,34.3,29.95,NNE,22,2.4,3.5,79,0.00,CLR,,0.00,WeatherDisplay:10.37,2013-04-09 02:16:00,
2013-04-08 21:22:00,40.1,34.4,29.95,NE,45,2.4,3.6,80,0.00,CLR,,0.00,WeatherDisplay:10.37,2013-04-09 02:22:00,
2013-04-08 21:27:00,40.1,35.0,29.95,NE,45,4.7,5.8,82,0.00,CLR,,0.00,WeatherDisplay:10.37,2013-04-09 02:27:00,
2013-04-08 21:32:00,39.9,34.9,29.95,ENE,68,2.9,4.9,82,0.00,CLR,,0.00,WeatherDisplay:10.37,2013-04-09 02:32:00,
2013-04-08 21:37:00,39.7,35.0,29.95,ENE,68,2.9,4.6,83,0.00,CLR,,0.00,WeatherDisplay:10.37,2013-04-09 02:37:00,
2013-04-08 21:42:00,39.6,35.1,29.98,ESE,112,2.9,4.0,84,0.00,CLR,,0.00,WeatherDisplay:10.37,2013-04-09 02:42:00,
2013-04-08 21:47:00,39.4,35.2,29.98,ENE,68,3.1,4.6,85,0.00,CLR,,0.00,WeatherDisplay:10.37,2013-04-09 02:47:00,
2013-04-08 21:52:00,39.2,35.1,29.98,North,0,2.4,3.3,85,0.00,CLR,,0.00,WeatherDisplay:10.37,2013-04-09 02:52:00,
2013-04-08 21:57:00,39.0,35.2,29.95,NE,45,2.2,3.5,86,0.00,CLR,,0.00,WeatherDisplay:10.37,2013-04-09 02:57:00,
2013-04-08 22:02:00,38.8,35.0,29.95,NE,45,2.4,3.5,86,0.00,CLR,,0.00,WeatherDisplay:10.37,2013-04-09 03:02:00,
2013-04-08 22:07:00,38.7,35.1,29.95,East,90,3.1,3.5,87,0.00,CLR,,0.00,WeatherDisplay:10.37,2013-04-09 03:07:00,
2013-04-08 22:12:00,38.8,35.3,29.95,ENE,68,2.6,3.5,87,0.00,CLR,,0.00,WeatherDisplay:10.37,2013-04-09 03:12:00,
2013-04-08 22:17:00,38.8,35.6,29.95,NE,45,4.0,5.8,88,0.00,CLR,,0.00,WeatherDisplay:10.37,2013-04-09 03:17:00,
2013-04-08 22:22:00,38.8,35.9,29.95,NE,45,2.9,4.6,89,0.00,CLR,,0.00,WeatherDisplay:10.37,2013-04-09 03:22:00,
2013-04-08 22:27:00,38.8,35.9,29.95,ENE,68,2.0,3.5,89,0.00,CLR,,0.00,WeatherDisplay:10.37,2013-04-09 03:27:00,
2013-04-08 22:32:00,38.8,35.9,29.95,NNE,22,4.5,5.8,89,0.00,CLR,,0.00,WeatherDisplay:10.37,2013-04-09 03:32:00,
2013-04-08 22:37:00,38.7,35.7,29.95,ENE,68,3.6,3.6,89,0.00,CLR,,0.00,WeatherDisplay:10.37,2013-04-09 03:37:00,
2013-04-08 22:43:00,38.7,35.7,29.98,ENE,68,4.0,5.8,89,0.00,CLR,,0.00,WeatherDisplay:10.37,2013-04-09 03:43:00,
2013-04-08 22:48:00,38.5,35.5,29.98,NE,45,3.6,3.6,89,0.00,CLR,,0.00,WeatherDisplay:10.37,2013-04-09 03:48:00,
2013-04-08 22:53:00,38.5,35.8,29.98,ESE,112,2.6,3.5,90,0.00,CLR,,0.00,WeatherDisplay:10.37,2013-04-09 03:53:00,
2013-04-08 22:58:00,38.3,35.6,29.95,ENE,68,2.0,2.3,90,0.00,CLR,,0.00,WeatherDisplay:10.37,2013-04-09 03:58:00,
2013-04-08 23:00:00,38.3,35.6,29.95,ENE,67,2.0,5.0,90,0.00,CLR,,0.00,WeatherDisplay:10.37,2013-04-09 04:00:00,
2013-04-08 23:05:00,38.3,35.9,29.95,NNE,22,2.6,2.6,91,0.00,CLR,,0.00,WeatherDisplay:10.37,2013-04-09 04:05:00,
2013-04-08 23:10:00,38.1,35.7,29.95,NE,45,2.9,4.6,91,0.00,CLR,,0.00,WeatherDisplay:10.37,2013-04-09 04:10:00,
2013-04-08 23:15:00,38.1,36.0,29.95,NE,45,1.6,3.6,92,0.00,CLR,,0.00,WeatherDisplay:10.37,2013-04-09 04:15:00,
2013-04-08 23:20:00,38.1,36.3,29.95,NNE,22,3.1,4.6,93,0.00,CLR,,0.00,WeatherDisplay:10.37,2013-04-09 04:20:00,
2013-04-08 23:25:00,38.1,36.3,29.95,NE,45,2.2,3.1,93,0.00,CLR,,0.00,WeatherDisplay:10.37,2013-04-09 04:25:00,
2013-04-08 23:30:00,38.1,36.3,29.95,East,90,1.6,2.3,93,0.00,CLR,,0.00,WeatherDisplay:10.37,2013-04-09 04:30:00,
2013-04-08 23:35:00,38.1,36.3,29.95,ESE,112,3.3,3.5,93,0.00,CLR,,0.00,WeatherDisplay:10.37,2013-04-09 04:35:00,
2013-04-08 23:40:00,38.1,36.3,29.95,ENE,68,1.4,2.3,93,0.00,CLR,,0.00,WeatherDisplay:10.37,2013-04-09 04:40:00,
2013-04-08 23:45:00,38.1,36.3,29.95,ESE,112,1.4,2.3,93,0.00,CLR,,0.00,WeatherDisplay:10.37,2013-04-09 04:45:00,
2013-04-08 23:51:00,38.1,36.3,29.95,NE,45,2.9,3.5,93,0.00,CLR,,0.00,WeatherDisplay:10.37,2013-04-09 04:51:00,
2013-04-08 23:56:00,38.1,36.3,29.95,ENE,68,2.9,3.5,93,0.00,CLR,,0.00,WeatherDisplay:10.37,2013-04-09 04:56:00,